• In Hungary
  • List of Countries
  • For 7 days
  • Water Temperature
  • Satellite Maps
  • Weather Map
  • News
  • Weather Widgets
  • user-avatar
    Login

    Hourly Weather Nikolsk

    Today, 20 February, Tuesday

    Time Temperature Precipitation Wind Pressure Humidity
    00:00 -20°C° 0 mm 1 mps 694 mmHg 97%
    01:00 -23°C° 0 mm 2 mps 694 mmHg 97%
    02:00 -24°C° 0 mm 2 mps 694 mmHg 97%
    03:00 -24°C° 0 mm 2 mps 694 mmHg 98%
    04:00 -24°C° 0 mm 2 mps 694 mmHg 98%
    05:00 -22°C° 0 mm 1 mps 694 mmHg 98%
    06:00 -22°C° 0 mm 1 mps 694 mmHg 98%
    07:00 -24°C° 0 mm 2 mps 693 mmHg 98%
    08:00 -21°C° 0 mm 2 mps 693 mmHg 95%
    09:00 -19°C° 0 mm 2 mps 693 mmHg 93%
    10:00 -16°C° 0 mm 2 mps 694 mmHg 91%
    11:00 -16°C° 0 mm 3 mps 693 mmHg 88%
    12:00 -15°C° 0 mm 3 mps 693 mmHg 85%
    13:00 -15°C° 0 mm 4 mps 693 mmHg 82%
    14:00 -15°C° 0 mm 4 mps 693 mmHg 83%
    15:00 -15°C° 0 mm 4 mps 692 mmHg 84%
    16:00 -14°C° 0 mm 3 mps 692 mmHg 85%
    17:00 -16°C° 0 mm 3 mps 692 mmHg 88%
    18:00 -17°C° 0 mm 3 mps 692 mmHg 91%
    19:00 -18°C° 0 mm 2 mps 691 mmHg 94%
    20:00 -18°C° 0 mm 2 mps 691 mmHg 94%
    21:00 -18°C° 0 mm 2 mps 691 mmHg 94%
    22:00 -18°C° 0 mm 2 mps 691 mmHg 94%
    23:00 -19°C° 0 mm 2 mps 690 mmHg 94%

    Tomorrow, 21 February, Wednesday

    Time Temperature Precipitation Wind Pressure Humidity
    00:00 -19°C° 0 mm 2 mps 690 mmHg 93%
    01:00 -19°C° 0 mm 2 mps 690 mmHg 93%
    02:00 -19°C° 0 mm 2 mps 689 mmHg 93%
    03:00 -19°C° 0 mm 2 mps 689 mmHg 92%
    04:00 -19°C° 0 mm 2 mps 688 mmHg 92%
    05:00 -20°C° 0 mm 2 mps 688 mmHg 93%
    06:00 -20°C° 0 mm 2 mps 688 mmHg 94%
    07:00 -20°C° 0 mm 2 mps 688 mmHg 95%
    08:00 -18°C° 0.1 mm 2 mps 688 mmHg 93%
    09:00 -17°C° 0.1 mm 3 mps 688 mmHg 91%
    10:00 -16°C° 0.1 mm 3 mps 688 mmHg 89%
    11:00 -15°C° 0.1 mm 3 mps 688 mmHg 88%
    12:00 -15°C° 0.1 mm 4 mps 687 mmHg 86%
    13:00 -14°C° 0.1 mm 4 mps 687 mmHg 85%
    14:00 -14°C° 0.2 mm 4 mps 687 mmHg 86%
    15:00 -14°C° 0.2 mm 4 mps 687 mmHg 87%
    16:00 -14°C° 0.2 mm 4 mps 687 mmHg 88%
    17:00 -15°C° 0.2 mm 4 mps 687 mmHg 90%
    18:00 -14°C° 0.2 mm 3 mps 687 mmHg 92%
    19:00 -15°C° 0.2 mm 3 mps 687 mmHg 94%
    20:00 -15°C° 0.1 mm 2 mps 687 mmHg 95%
    21:00 -15°C° 0.1 mm 2 mps 687 mmHg 95%
    22:00 -16°C° 0.1 mm 2 mps 687 mmHg 95%
    23:00 -17°C° 0 mm 2 mps 686 mmHg 96%

    Day after tomorrow, 22 February, Thursday

    Time Temperature Precipitation Wind Pressure Humidity
    00:00 -16°C° 0 mm 1 mps 686 mmHg 96%
    01:00 -16°C° 0 mm 1 mps 686 mmHg 97%
    02:00 -17°C° 0 mm 1 mps 685 mmHg 97%
    03:00 -18°C° 0 mm 1 mps 685 mmHg 98%
    04:00 -18°C° 0 mm 1 mps 685 mmHg 98%
    05:00 -19°C° 0.1 mm 1 mps 685 mmHg 98%
    06:00 -19°C° 0.1 mm 1 mps 685 mmHg 98%
    07:00 -19°C° 0.1 mm 1 mps 685 mmHg 98%
    08:00 -17°C° 0 mm 1 mps 685 mmHg 95%
    09:00 -15°C° 0 mm 1 mps 685 mmHg 93%
    10:00 -13°C° 0 mm 1 mps 686 mmHg 90%
    11:00 -12°C° 0.1 mm 1 mps 685 mmHg 87%
    12:00 -12°C° 0.1 mm 1 mps 685 mmHg 83%
    13:00 -13°C° 0.1 mm 2 mps 685 mmHg 80%
    14:00 -13°C° 0.1 mm 2 mps 685 mmHg 83%
    15:00 -13°C° 0.1 mm 2 mps 685 mmHg 85%
    16:00 -13°C° 0.1 mm 2 mps 685 mmHg 88%
    17:00 -15°C° 0.1 mm 2 mps 686 mmHg 91%
    18:00 -14°C° 0.1 mm 1 mps 686 mmHg 93%
    19:00 -16°C° 0.1 mm 1 mps 687 mmHg 96%
    20:00 -17°C° 0 mm 1 mps 687 mmHg 96%
    21:00 -19°C° 0 mm 1 mps 687 mmHg 97%
    22:00 -21°C° 0 mm 1 mps 687 mmHg 98%
    23:00 -21°C° 0 mm 0 mps 687 mmHg 98%

    23 February, Friday

    Time Temperature Precipitation Wind Pressure Humidity
    00:00 -22°C° 0 mm 0 mps 687 mmHg 98%
    01:00 -23°C° 0 mm 0 mps 688 mmHg 98%
    02:00 -23°C° 0 mm 0 mps 688 mmHg 98%
    03:00 -23°C° 0 mm 1 mps 688 mmHg 97%
    04:00 -24°C° 0 mm 1 mps 688 mmHg 97%
    05:00 -24°C° 0 mm 1 mps 689 mmHg 97%
    06:00 -24°C° 0 mm 1 mps 689 mmHg 96%
    07:00 -24°C° 0 mm 1 mps 689 mmHg 96%
    08:00 -21°C° 0 mm 1 mps 690 mmHg 92%
    09:00 -18°C° 0 mm 1 mps 690 mmHg 88%
    10:00 -15°C° 0 mm 1 mps 690 mmHg 85%
    11:00 -14°C° 0 mm 1 mps 690 mmHg 82%
    12:00 -12°C° 0 mm 1 mps 690 mmHg 80%
    13:00 -10°C° 0 mm 1 mps 690 mmHg 78%
    14:00 -10°C° 0 mm 1 mps 690 mmHg 80%
    15:00 -10°C° 0 mm 1 mps 690 mmHg 82%
    16:00 -10°C° 0 mm 1 mps 690 mmHg 84%
    17:00 -12°C° 0 mm 1 mps 690 mmHg 88%
    18:00 -14°C° 0 mm 1 mps 690 mmHg 91%
    19:00 -17°C° 0 mm 0 mps 690 mmHg 94%
    20:00 -17°C° 0 mm 1 mps 690 mmHg 95%
    21:00 -17°C° 0 mm 1 mps 690 mmHg 95%
    22:00 -18°C° 0 mm 1 mps 691 mmHg 96%
    23:00 -17°C° 0 mm 1 mps 691 mmHg 96%

    24 February, Saturday

    Time Temperature Precipitation Wind Pressure Humidity
    00:00 -17°C° 0 mm 1 mps 691 mmHg 96%
    01:00 -17°C° 0 mm 1 mps 691 mmHg 95%
    02:00 -16°C° 0.1 mm 1 mps 691 mmHg 95%
    03:00 -16°C° 0.1 mm 1 mps 691 mmHg 96%
    04:00 -15°C° 0.1 mm 1 mps 691 mmHg 96%
    05:00 -16°C° 0.1 mm 1 mps 690 mmHg 96%
    06:00 -16°C° 0.1 mm 1 mps 690 mmHg 96%
    07:00 -16°C° 0.1 mm 1 mps 690 mmHg 96%
    08:00 -14°C° 0 mm 1 mps 690 mmHg 93%
    09:00 -12°C° 0 mm 1 mps 690 mmHg 90%
    10:00 -10°C° 0 mm 1 mps 690 mmHg 88%
    11:00 -9°C° 0 mm 1 mps 690 mmHg 87%
    12:00 -8°C° 0 mm 1 mps 689 mmHg 86%
    13:00 -7°C° 0 mm 1 mps 689 mmHg 85%
    14:00 -7°C° 0 mm 1 mps 688 mmHg 86%
    15:00 -7°C° 0 mm 1 mps 688 mmHg 86%
    16:00 -7°C° 0 mm 1 mps 688 mmHg 87%
    17:00 -10°C° 0 mm 1 mps 688 mmHg 90%
    18:00 -12°C° 0 mm 0 mps 688 mmHg 92%
    19:00 -14°C° 0 mm 0 mps 688 mmHg 95%
    20:00 -14°C° 0 mm 0 mps 688 mmHg 95%
    21:00 -14°C° 0 mm 0 mps 688 mmHg 94%
    22:00 -15°C° 0 mm 0 mps 688 mmHg 94%
    23:00 -15°C° 0 mm 0 mps 688 mmHg 94%

    25 February, Sunday

    Time Temperature Precipitation Wind Pressure Humidity
    00:00 -15°C° 0 mm 0 mps 688 mmHg 94%
    01:00 -15°C° 0 mm 0 mps 687 mmHg 95%
    02:00 -15°C° 0 mm 0 mps 687 mmHg 95%
    03:00 -15°C° 0 mm 0 mps 687 mmHg 95%
    04:00 -15°C° 0 mm 0 mps 687 mmHg 96%
    05:00 -16°C° 0 mm 0 mps 687 mmHg 96%
    06:00 -16°C° 0 mm 0 mps 687 mmHg 96%
    07:00 -16°C° 0 mm 1 mps 687 mmHg 97%
    08:00 -14°C° 0 mm 0 mps 687 mmHg 94%
    09:00 -11°C° 0 mm 0 mps 687 mmHg 91%
    10:00 -9°C° 0 mm 0 mps 687 mmHg 88%
    11:00 -7°C° 0 mm 0 mps 687 mmHg 87%
    12:00 -6°C° 0 mm 0 mps 686 mmHg 85%
    13:00 -5°C° 0 mm 0 mps 686 mmHg 84%
    14:00 -5°C° 0 mm 0 mps 686 mmHg 85%
    15:00 -6°C° 0 mm 0 mps 685 mmHg 86%
    16:00 -6°C° 0 mm 0 mps 685 mmHg 87%
    17:00 -7°C° 0 mm 1 mps 685 mmHg 89%
    18:00 -8°C° 0 mm 1 mps 685 mmHg 92%
    19:00 -10°C° 0 mm 1 mps 685 mmHg 95%
    20:00 -10°C° 0.1 mm 1 mps 685 mmHg 95%
    21:00 -10°C° 0.1 mm 1 mps 685 mmHg 96%
    22:00 -10°C° 0.1 mm 1 mps 685 mmHg 97%
    23:00 -11°C° 0.1 mm 1 mps 686 mmHg 97%
    Show more